Temp
63 63 63 62 62 62 61 61 60 60 61 61 61 61 60 61 60 60 60 60 62 62 61 62 62 62 56 48 50 67 71 71 69 64 59 55 51 51 47 49 50 47 50 56 58 58 55
62 62 62 63 62 61 60 61 61 61 61 61 60 60 59 59 59 60 60 60 60 61 61 61 61 60 52 43 65 67 66 64 65 61 56 56 53 55 50 50 49 53 54 55 55 56 55
62 62 62 62 62 61 60 61 60 61 60 61 60 60 59 59 59 59 59 59 60 60 60 60 61 57 50 51 65 64 64 64 63 61 54 57 58 55 53 50 55 53 47 49 52 54 53
62 62 62 61 61 61 60 60 60 60 60 61 60 59 59 59 58 58 58 59 59 59 59 59 60 53 47 63 64 63 64 60 61 62 61 61 61 55 52 53 51 47 45 39 49 53 54
61 62 62 61 61 60 60 60 60 60 60 59 59 59 58 58 58 58 58 58 58 58 59 60 53 51 45 64 57 61 64 60 60 60 60 65 59 52 50 44 39 42 33 37 44 53 52
61 61 62 61 60 60 60 59 60 59 59 58 59 59 57 58 57 57 57 57 57 56 55 56 54 46 51 51 59 61 61 64 58 56 56 55 50 43 41 39 32 34 34 36 38 46 47
62 61 61 60 60 59 59 60 60 59 58 58 58 58 58 58 58 57 52 45 41 41 46 43 47 48 52 59 63 58 61 59 56 53 45 49 43 40 42 41 41 41 38 35 40 48 44
61 61 60 61 60 59 59 58 59 58 57 58 58 57 57 57 57 56 48 40 44 45 35 48 50 52 55 59 51 54 61 52 49 43 46 44 40 47 49 47 44 45 41 34 41 45 43
60 60 60 60 59 59 58 59 59 58 58 58 57 57 57 56 56 50 46 44 49 48 39 43 48 49 53 57 50 51 58 53 47 43 44 41 43 49 46 45 42 36 35 35 37 41 40
60 60 60 60 59 59 58 58 58 59 58 56 56 56 56 55 49 46 43 51 49 47 25 35 40 48 54 54 46 58 60 54 50 43 43 43 49 45 43 41 42 33 42 42 39 34 28
59 59 59 59 59 58 58 58 58 57 56 55 54 53 55 55 46 44 48 47 49 44 12 38 41 56 54 47 49 51 58 56 45 45 45 38 43 41 39 42 44 38 43 40 37 31 27
59 59 59 59 58 58 58 58 57 57 56 55 55 56 55 51 49 50 48 48 46 22 22 34 43 43 45 46 47 51 52 57 55 47 46 42 47 45 43 45 45 45 39 35 31 29 18
58 59 59 58 58 57 57 57 57 57 57 56 55 55 51 52 44 48 47 42 22 19 33 34 38 44 43 42 44 46 44 41 38 34 33 39 39 44 46 40 43 40 32 19 17 15 19
58 58 58 58 57 57 57 57 56 57 57 56 55 53 51 50 48 47 43 31 23 31 30 42 43 43 37 42 43 42 41 37 40 38 32 30 26 39 43 40 37 33 34 22 19 16 21
58 58 57 57 57 56 56 56 56 56 56 55 54 47 47 46 50 47 38 27 28 31 36 40 42 35 35 39 41 40 38 38 40 39 31 26 29 42 43 43 42 33 25 34 24 22 15
57 57 57 57 56 56 55 56 56 56 56 55 44 41 42 49 49 44 35 32 32 37 44 41 32 36 32 34 36 37 38 43 42 42 41 36 26 39 41 44 42 37 39 25 19 12 16
57 57 57 57 56 55 55 55 56 56 56 54 43 37 46 52 48 38 32 32 39 47 45 41 34 35 36 35 37 36 36 40 44 42 42 39 33 34 38 34 33 34 28 29 28 23 16
57 57 57 56 55 55 55 55 55 55 55 47 38 30 45 49 35 36 34 36 42 43 44 42 42 40 38 38 34 33 34 39 45 44 38 41 33 23 31 38 40 37 33 31 21 18 20
56 57 56 56 55 55 54 54 54 55 55 41 35 35 44 43 34 36 39 41 42 41 41 43 41 44 42 37 33 36 38 45 46 44 40 42 30 19 27 33 37 33 34 34 31 27 18
56 56 56 56 55 55 54 54 54 54 55 42 35 30 37 38 40 38 37 36 38 44 43 45 43 45 42 39 40 36 38 43 46 47 49 46 33 26 22 26 31 27 32 34 31 23 25
56 55 56 56 55 55 54 53 53 54 53 42 36 36 40 34 39 40 40 39 37 37 44 45 42 43 41 35 37 35 39 40 46 49 45 41 27 27 32 35 32 33 33 34 28 34 26
55 55 55 56 55 55 54 53 53 53 52 39 36 39 42 35 36 35 37 36 38 40 41 40 40 43 42 38 38 35 39 38 39 43 42 42 31 31 29 33 32 29 33 34 35 35 35
55 55 55 55 55 54 54 53 53 53 49 37 37 42 38 37 34 33 35 38 40 42 43 43 42 40 39 41 42 43 44 44 43 40 37 36 32 29 22 31 31 27 32 34 34 36 36
54 54 55 54 55 54 53 53 53 53 48 42 42 41 39 32 33 36 39 42 41 40 39 42 43 40 44 47 46 46 44 43 42 40 43 37 34 32 20 27 18 35 40 41 38 39 39
54 54 54 54 54 54 53 53 53 53 52 43 44 36 38 35 39 37 38 38 40 41 39 41 42 44 46 44 38 37 38 39 41 43 42 44 37 25 23 25 29 36 39 38 37 38 42
53 53 54 53 53 53 53 53 53 53 53 39 41 41 38 36 33 41 37 38 36 34 37 40 44 46 45 39 36 29 30 36 33 36 42 42 41 33 31 26 21 35 40 42 42 33 43
53 53 53 53 53 53 53 53 53 53 53 41 37 39 37 35 38 37 34 37 40 37 35 37 39 40 42 35 33 30 29 39 31 32 34 34 35 32 32 30 30 41 43 43 30 35 42
52 52 53 53 53 52 53 53 53 53 53 42 38 40 35 33 35 40 42 37 41 38 36 39 39 39 36 33 33 32 32 37 35 38 36 35 32 32 33 30 25 43 41 37 43 42 43
51 51 52 52 52 52 53 53 53 53 53 49 36 41 41 33 32 38 41 42 42 46 41 43 39 38 39 35 33 34 33 37 34 32 36 34 36 32 34 34 44 44 43 46 44 43 41
MSLP
1021.40 1021.00 1020.51 1020.15 1019.61 1019.02 1018.60 1018.10 1017.68 1017.25 1016.71 1016.10 1015.69 1015.27 1014.83 1014.22 1014.15 1014.21 1014.03 1013.84 1013.52 1013.36 1013.25 1012.85 1012.72 1012.63 1011.98 1011.96 1010.46 1008.95 1008.81 1009.06 1010.04 1010.87 1011.37 1012.28 1012.81 1013.10 1013.29 1013.31 1013.32 1013.40 1013.28 1012.97 1012.73 1012.53 1012.68
1021.31 1020.97 1020.43 1019.77 1019.29 1018.91 1018.37 1017.73 1017.28 1016.81 1016.26 1015.82 1015.42 1015.07 1014.72 1014.25 1014.01 1013.83 1013.64 1013.53 1013.30 1013.08 1012.97 1012.74 1012.48 1012.61 1011.83 1011.14 1009.26 1008.83 1009.10 1009.39 1009.83 1010.62 1011.35 1011.97 1012.54 1012.64 1012.99 1012.97 1013.26 1013.12 1013.07 1012.94 1012.74 1012.65 1012.66
1021.32 1020.80 1020.21 1019.83 1019.19 1018.65 1018.27 1017.49 1017.06 1016.48 1016.03 1015.44 1015.02 1014.65 1014.35 1013.95 1013.71 1013.56 1013.28 1013.14 1013.01 1012.78 1012.66 1012.58 1012.30 1012.45 1011.35 1010.15 1008.99 1008.95 1008.98 1009.16 1009.84 1010.31 1011.33 1011.80 1012.23 1012.51 1012.82 1012.87 1012.85 1013.14 1013.35 1013.26 1012.86 1012.77 1012.78
1021.28 1020.64 1020.12 1019.58 1019.00 1018.44 1018.05 1017.43 1016.90 1016.22 1015.72 1015.17 1014.88 1014.50 1014.12 1013.80 1013.49 1013.26 1012.99 1012.75 1012.59 1012.45 1012.30 1012.27 1012.05 1012.07 1010.54 1009.45 1009.11 1009.40 1009.49 1009.82 1010.04 1010.45 1011.11 1011.65 1012.13 1012.54 1012.64 1012.75 1013.13 1013.47 1013.79 1013.75 1012.96 1012.85 1012.73
1021.33 1020.66 1019.96 1019.49 1018.76 1018.43 1017.76 1017.26 1016.55 1015.91 1015.37 1015.12 1014.75 1014.32 1013.95 1013.62 1013.31 1013.03 1012.73 1012.43 1012.16 1012.03 1011.88 1011.78 1011.84 1011.11 1010.23 1009.23 1009.39 1009.34 1009.55 1009.64 1010.03 1010.82 1011.20 1011.55 1012.29 1012.58 1012.89 1013.20 1013.93 1014.09 1014.31 1014.21 1013.73 1012.96 1013.08
1021.27 1020.71 1019.89 1019.37 1018.68 1018.06 1017.50 1016.93 1016.25 1015.74 1015.20 1014.88 1014.44 1014.06 1013.79 1013.41 1013.08 1012.82 1012.40 1012.08 1011.59 1011.52 1011.59 1011.73 1011.52 1011.02 1009.72 1009.07 1008.91 1009.21 1009.61 1009.73 1010.26 1010.90 1011.65 1011.97 1012.53 1012.91 1013.45 1013.86 1013.97 1014.43 1014.72 1014.59 1014.22 1013.67 1013.54
1021.00 1020.54 1019.85 1019.28 1018.54 1017.86 1017.26 1016.57 1016.06 1015.47 1015.03 1014.65 1014.15 1013.76 1013.35 1012.99 1012.70 1012.48 1012.31 1012.30 1012.10 1012.04 1011.69 1010.84 1010.03 1009.97 1008.81 1008.59 1008.73 1009.27 1009.60 1010.02 1010.45 1011.00 1011.57 1012.44 1012.78 1012.87 1013.38 1013.79 1014.00 1014.30 1014.67 1015.00 1014.59 1014.10 1014.00
1021.06 1020.44 1019.91 1019.09 1018.40 1017.75 1016.96 1016.59 1015.94 1015.38 1014.80 1014.17 1013.73 1013.37 1013.09 1012.80 1012.57 1012.36 1012.52 1012.76 1012.48 1012.42 1011.83 1010.78 1010.26 1009.79 1009.04 1008.61 1008.95 1009.47 1009.54 1010.17 1010.65 1011.28 1011.99 1012.72 1012.51 1012.97 1013.42 1013.94 1014.14 1014.41 1014.90 1015.35 1014.91 1014.53 1014.61
1020.92 1020.33 1019.71 1019.05 1018.28 1017.58 1017.02 1016.30 1015.61 1015.10 1014.41 1013.85 1013.37 1013.03 1012.68 1012.52 1012.43 1012.35 1012.65 1012.51 1012.29 1012.30 1011.86 1011.00 1010.56 1009.88 1009.00 1008.69 1009.12 1009.47 1009.72 1010.04 1010.72 1011.67 1012.17 1012.65 1013.03 1013.21 1013.60 1014.03 1014.41 1014.84 1015.29 1015.61 1015.72 1015.41 1015.41
1020.91 1020.24 1019.61 1018.90 1018.19 1017.49 1016.83 1016.16 1015.35 1014.61 1013.97 1013.55 1013.02 1012.54 1012.29 1012.28 1012.60 1012.62 1012.59 1012.07 1012.25 1012.37 1012.12 1011.71 1010.94 1009.57 1008.95 1008.89 1009.66 1009.69 1009.71 1009.96 1010.79 1011.74 1012.24 1013.25 1013.05 1013.35 1013.77 1014.12 1014.53 1015.21 1015.35 1015.76 1016.28 1016.66 1017.13
1020.88 1020.31 1019.59 1018.86 1018.16 1017.34 1016.72 1015.91 1014.98 1014.26 1013.44 1012.80 1012.26 1011.93 1011.57 1011.84 1012.13 1012.52 1012.22 1012.34 1012.46 1012.48 1012.27 1011.87 1010.65 1009.55 1008.95 1009.30 1009.81 1010.42 1010.14 1010.03 1010.99 1011.82 1012.62 1013.49 1013.29 1013.46 1013.81 1014.16 1014.64 1015.26 1015.72 1016.35 1017.09 1017.85 1018.17
1020.80 1020.35 1019.68 1018.93 1018.13 1017.36 1016.56 1015.67 1014.85 1013.74 1012.60 1011.69 1011.13 1010.76 1010.55 1011.07 1011.55 1011.83 1012.12 1012.43 1012.62 1012.83 1011.85 1011.03 1010.33 1009.65 1009.75 1010.11 1010.27 1010.81 1010.57 1010.52 1011.35 1012.55 1013.02 1013.64 1013.54 1013.55 1013.95 1014.40 1014.78 1015.56 1016.47 1017.44 1018.46 1019.09 1019.33
1020.86 1020.20 1019.63 1019.04 1018.19 1017.43 1016.62 1015.75 1014.68 1013.54 1012.24 1011.46 1011.18 1010.89 1010.77 1011.04 1011.77 1012.24 1012.47 1012.70 1012.99 1012.39 1012.13 1010.89 1009.86 1009.99 1010.30 1010.76 1011.09 1011.34 1011.62 1011.86 1012.44 1013.41 1014.15 1014.32 1014.43 1014.07 1014.17 1014.98 1015.59 1016.04 1017.23 1018.85 1019.95 1020.43 1019.61
1021.00 1020.14 1019.65 1019.21 1018.33 1017.43 1016.67 1015.80 1014.96 1013.73 1012.87 1012.40 1011.86 1011.74 1011.82 1011.82 1012.02 1012.47 1012.89 1013.10 1012.67 1012.17 1011.20 1010.10 1010.12 1010.69 1011.11 1011.44 1011.77 1012.43 1012.49 1012.86 1013.24 1013.46 1014.50 1015.12 1015.49 1014.68 1014.56 1015.05 1015.71 1016.69 1017.58 1019.16 1020.15 1021.15 1020.24
1020.98 1020.42 1019.77 1019.36 1018.53 1017.66 1016.86 1016.14 1015.00 1013.95 1013.32 1013.11 1012.56 1012.71 1012.84 1012.92 1012.57 1012.54 1012.77 1012.74 1012.75 1012.10 1011.03 1010.28 1010.84 1011.49 1012.07 1012.19 1012.27 1012.83 1013.31 1013.20 1013.43 1013.81 1014.50 1015.35 1015.41 1015.03 1014.94 1015.28 1015.95 1017.13 1018.12 1019.06 1020.19 1021.44 1020.88
1020.77 1020.27 1019.97 1019.50 1018.86 1017.96 1017.21 1016.44 1015.38 1014.42 1013.66 1013.30 1013.35 1013.56 1013.54 1013.11 1012.77 1012.63 1012.89 1012.43 1012.02 1011.50 1010.41 1010.53 1011.16 1011.90 1012.30 1012.62 1012.80 1013.11 1013.30 1013.21 1013.35 1013.66 1013.93 1014.94 1015.63 1015.72 1015.64 1015.81 1016.39 1016.65 1018.12 1019.34 1020.60 1021.49 1020.89
1020.95 1020.41 1019.73 1019.61 1019.07 1018.31 1017.45 1016.85 1015.65 1014.87 1013.62 1013.23 1013.68 1013.74 1013.33 1012.96 1013.08 1013.24 1013.23 1012.78 1011.71 1010.93 1010.50 1010.58 1011.12 1011.59 1012.17 1012.49 1012.77 1013.06 1013.27 1013.26 1013.21 1013.86 1014.21 1014.84 1015.63 1016.54 1016.45 1016.60 1016.76 1017.50 1018.12 1019.10 1020.09 1020.89 1021.08
1021.15 1020.46 1019.79 1019.55 1019.21 1018.50 1017.69 1017.07 1016.19 1015.26 1014.01 1013.61 1014.04 1014.03 1013.17 1012.96 1013.29 1013.50 1013.24 1013.02 1012.38 1011.37 1010.79 1010.56 1010.73 1011.14 1011.72 1012.28 1012.77 1013.08 1013.30 1013.11 1012.96 1013.67 1014.50 1014.79 1015.80 1017.04 1016.95 1016.75 1016.49 1016.84 1017.72 1018.68 1019.70 1020.95 1021.00
1021.07 1020.73 1019.91 1019.57 1019.30 1018.65 1017.96 1017.23 1016.59 1015.59 1014.75 1014.74 1015.18 1015.04 1013.60 1013.44 1013.79 1013.42 1012.98 1012.52 1012.08 1011.41 1010.94 1010.62 1010.61 1010.78 1011.35 1012.01 1012.80 1013.04 1013.05 1012.58 1012.94 1013.47 1013.90 1014.56 1015.86 1017.04 1017.29 1017.18 1016.96 1017.19 1017.64 1018.19 1019.09 1019.84 1019.96
1020.85 1020.73 1020.06 1019.51 1019.35 1018.77 1018.11 1017.53 1016.76 1016.02 1015.03 1015.05 1015.78 1015.74 1014.74 1014.33 1014.35 1013.93 1013.15 1012.50 1011.70 1010.98 1010.72 1010.35 1010.45 1010.56 1011.15 1011.92 1012.23 1012.90 1012.86 1012.74 1012.79 1013.20 1013.69 1014.19 1015.74 1016.74 1017.15 1016.95 1016.99 1017.24 1017.26 1017.68 1018.37 1019.12 1018.51
1020.84 1020.58 1020.25 1019.56 1019.36 1018.99 1018.29 1017.76 1017.00 1016.09 1015.21 1015.35 1015.94 1016.42 1016.17 1015.35 1014.39 1014.07 1013.31 1012.68 1011.92 1011.29 1010.67 1010.43 1010.65 1010.71 1011.14 1011.89 1012.39 1012.73 1012.81 1012.88 1013.03 1013.16 1013.85 1014.48 1015.97 1016.93 1017.11 1016.93 1016.87 1016.79 1016.78 1016.96 1017.35 1017.19 1017.15
1020.82 1020.63 1020.32 1019.81 1019.40 1019.14 1018.68 1017.98 1017.44 1016.50 1015.34 1015.80 1016.36 1016.30 1016.00 1015.56 1014.91 1014.33 1013.58 1012.87 1012.20 1011.66 1011.19 1010.93 1011.05 1011.12 1011.17 1011.77 1012.04 1012.44 1012.54 1012.74 1012.91 1013.53 1014.03 1014.74 1016.18 1017.07 1017.23 1016.64 1016.45 1016.22 1015.71 1015.78 1015.97 1015.98 1015.46
1020.87 1020.68 1020.26 1019.90 1019.49 1019.28 1018.88 1018.36 1017.84 1017.15 1016.34 1016.92 1017.25 1016.73 1016.31 1015.57 1015.12 1014.55 1013.77 1012.93 1012.41 1011.91 1011.75 1011.49 1011.42 1011.56 1011.76 1011.94 1011.84 1011.85 1012.02 1012.30 1012.54 1013.26 1014.19 1015.01 1016.08 1017.14 1017.45 1016.75 1016.15 1015.37 1013.69 1014.02 1014.26 1014.09 1013.83
1020.87 1020.60 1020.24 1019.98 1019.54 1019.40 1019.07 1018.56 1018.15 1017.85 1017.69 1017.92 1017.84 1017.51 1016.78 1015.95 1015.36 1014.72 1013.93 1013.11 1012.58 1012.26 1012.04 1012.02 1011.79 1011.81 1012.16 1011.89 1011.97 1012.05 1012.39 1012.69 1013.01 1013.39 1013.69 1014.87 1015.89 1016.86 1017.39 1016.68 1015.54 1013.00 1012.11 1011.97 1012.44 1012.27 1012.37
1020.84 1020.51 1020.22 1019.86 1019.67 1019.41 1019.14 1018.78 1018.43 1018.18 1017.96 1018.17 1018.10 1018.13 1017.48 1016.64 1015.77 1014.66 1014.06 1013.53 1012.99 1012.68 1012.37 1012.19 1012.18 1012.23 1012.13 1012.25 1012.81 1013.05 1013.17 1013.33 1013.41 1013.55 1013.88 1014.30 1015.44 1016.57 1017.06 1016.61 1014.44 1012.00 1011.53 1011.42 1011.47 1011.13 1010.75
1020.70 1020.45 1020.09 1019.86 1019.71 1019.47 1019.16 1018.84 1018.60 1018.32 1018.14 1018.32 1018.44 1018.35 1018.16 1017.42 1015.62 1015.16 1014.58 1013.65 1013.35 1013.16 1012.98 1012.68 1012.41 1012.27 1012.29 1012.96 1013.44 1013.53 1013.48 1013.27 1013.73 1014.01 1014.14 1014.60 1015.05 1015.98 1016.32 1015.89 1014.07 1011.84 1010.93 1010.61 1010.70 1010.67 1010.04
1020.57 1020.37 1020.01 1019.74 1019.56 1019.49 1019.08 1018.92 1018.68 1018.41 1018.22 1018.55 1018.78 1018.59 1018.63 1017.88 1016.10 1015.62 1015.06 1014.39 1013.55 1013.26 1013.26 1013.12 1012.83 1012.76 1012.74 1013.43 1013.95 1013.99 1013.61 1013.31 1013.55 1013.70 1014.23 1014.65 1014.94 1015.15 1015.30 1014.81 1013.00 1011.16 1010.65 1010.69 1010.73 1010.72 1009.84
1020.41 1020.20 1019.80 1019.59 1019.34 1019.21 1018.89 1018.73 1018.58 1018.44 1018.22 1018.60 1018.77 1018.59 1019.01 1018.46 1016.66 1015.82 1015.41 1014.95 1014.31 1013.81 1013.31 1013.09 1013.31 1013.24 1013.50 1013.68 1013.95 1013.79 1013.63 1013.38 1013.40 1013.10 1013.26 1013.66 1014.11 1014.16 1014.27 1013.96 1012.50 1010.50 1010.74 1010.64 1009.89 1009.63 1009.68
1020.24 1020.03 1019.72 1019.51 1019.13 1018.90 1018.60 1018.39 1018.33 1018.16 1017.95 1017.96 1018.58 1018.45 1018.54 1018.84 1017.29 1016.23 1015.64 1015.08 1014.92 1014.18 1014.21 1013.10 1012.73 1012.60 1012.77 1013.08 1013.61 1013.54 1013.40 1013.31 1013.26 1013.13 1012.95 1013.07 1012.59 1012.93 1012.81 1011.83 1010.44 1010.11 1009.87 1009.43 1009.48 1009.77 1009.77
Wind_Speed
16 17 19 18 20 21 21 21 20 19 22 21 21 19 18 14 12 15 13 12 14 15 17 19 16 16 7 5 9 5 9 19 18 13 13 8 6 5 6 6 3 4 2 3 5 7 3
17 18 19 20 22 22 20 18 20 21 21 21 20 18 17 17 16 15 14 12 14 16 16 17 15 15 1 9 6 6 3 8 9 9 7 8 7 5 4 3 8 5 7 7 5 5 3
18 18 20 21 23 21 20 19 21 21 20 20 20 17 15 15 15 15 16 15 14 16 16 16 15 8 6 12 2 7 4 11 10 7 7 6 4 4 4 4 5 3 3 1 5 3 5
20 19 20 21 22 22 20 20 20 20 21 20 17 18 16 15 15 15 16 16 16 16 15 13 13 5 5 5 10 9 2 3 6 6 6 8 5 3 3 3 4 5 4 3 3 5 6
20 22 21 21 22 23 21 20 20 20 19 20 18 17 17 16 16 16 16 15 16 15 14 13 5 5 4 5 4 5 4 6 5 4 4 9 5 4 2 6 3 3 3 3 6 5 4
20 22 22 22 24 23 21 20 21 21 21 18 17 17 15 16 16 16 16 17 17 13 6 5 4 2 2 4 4 5 3 2 4 9 7 5 3 4 3 3 8 5 4 2 4 1 3
21 21 22 23 23 24 22 20 21 20 20 17 18 17 16 14 14 14 9 5 4 2 3 3 5 5 1 2 4 4 5 4 4 2 6 3 4 10 11 5 2 6 4 1 4 5 5
21 22 23 24 23 23 23 23 23 23 20 18 17 16 15 14 12 13 3 2 3 1 3 9 7 6 9 4 6 5 6 5 5 4 8 3 4 4 5 3 2 2 2 4 6 1 2
20 22 23 23 24 23 23 24 24 22 22 20 18 17 14 12 10 3 2 4 4 3 2 3 3 3 2 5 4 5 8 3 10 8 2 4 3 7 6 4 4 2 4 3 4 5 2
21 21 23 24 24 23 24 25 24 24 24 23 22 19 15 10 3 2 4 3 1 2 4 2 2 5 2 7 4 4 2 4 3 10 7 3 2 9 3 3 4 4 3 3 2 3 3
20 22 23 25 25 25 24 26 27 26 24 23 19 21 19 11 5 4 3 2 2 2 7 9 4 3 3 4 11 1 3 4 5 6 5 3 4 8 5 3 4 3 3 4 3 4 3
19 21 23 25 25 25 26 27 28 29 29 25 17 12 7 3 3 2 6 1 1 6 4 6 5 8 7 4 3 4 3 5 5 7 5 2 1 3 3 4 1 7 5 6 5 2 2
19 20 22 24 25 26 26 28 30 31 25 17 14 11 6 2 3 6 4 3 5 4 1 6 9 11 8 7 5 4 2 4 5 5 3 4 4 3 5 7 5 5 5 3 6 4 6
19 20 21 23 24 25 27 29 31 30 21 20 15 13 11 4 5 5 1 1 6 2 4 9 13 12 6 3 7 4 3 4 3 5 4 4 2 3 1 3 5 2 5 6 5 2 5
18 20 20 22 24 26 28 29 29 27 24 10 11 3 4 5 3 2 2 5 2 2 6 10 13 7 4 4 5 5 1 4 3 3 6 5 1 2 2 2 4 3 2 1 6 2 4
17 17 20 21 23 25 27 29 29 28 24 12 2 3 3 5 4 3 3 4 2 5 8 5 6 2 4 3 4 4 6 3 3 3 2 5 4 1 2 3 4 4 7 4 4 2 4
17 17 18 21 22 25 26 27 28 28 27 6 3 3 3 4 2 3 3 5 4 6 7 6 4 5 5 5 3 2 6 1 6 5 4 4 4 0 4 4 7 3 0 5 5 3 4
17 16 17 20 21 24 26 27 28 27 23 8 3 4 3 3 4 2 2 1 4 4 3 2 4 5 4 4 3 3 6 5 6 7 6 3 5 3 5 1 4 3 5 5 5 3 1
15 17 17 19 20 22 25 27 28 28 18 1 3 3 3 4 5 3 1 1 2 2 2 3 2 3 2 5 5 3 5 2 8 7 8 5 1 3 3 3 2 3 5 5 5 3 6
13 14 16 17 19 21 23 26 28 28 22 3 3 4 5 4 1 2 6 5 5 3 3 3 3 5 5 3 2 6 3 4 8 6 7 6 3 5 6 5 4 2 4 6 7 3 4
12 13 15 15 18 19 21 24 27 29 24 3 3 1 1 4 4 5 3 4 4 7 5 5 4 4 5 4 3 3 2 3 4 3 3 5 3 2 4 6 3 5 5 7 8 11 7
12 13 12 14 15 18 19 22 24 27 21 4 2 1 2 2 4 4 4 4 5 4 5 5 4 3 3 4 4 7 6 3 3 3 3 1 2 2 4 5 5 5 9 10 11 12 14
12 13 12 13 13 15 17 18 21 25 15 4 3 3 1 3 4 3 2 3 4 2 3 4 2 4 6 3 1 3 1 6 6 7 3 4 5 3 5 5 6 7 11 14 6 6 10
12 12 12 11 13 12 13 15 17 19 14 1 2 2 3 3 0 2 5 3 3 3 2 3 3 3 2 2 2 5 8 6 5 2 5 5 4 2 4 5 1 6 2 7 12 7 12
11 12 13 10 11 13 11 12 13 14 14 3 2 3 2 3 4 6 3 3 1 3 2 2 2 1 1 3 4 3 2 3 2 2 3 4 4 2 1 3 8 4 3 6 6 6 6
10 11 13 10 10 12 9 10 12 11 10 4 1 2 2 3 4 3 4 2 2 1 4 0 1 1 4 3 2 3 4 3 3 2 2 4 5 2 3 2 4 4 1 1 4 4 4
11 11 13 13 9 10 11 8 10 11 7 3 2 2 0 3 4 1 4 3 2 2 3 2 2 1 2 2 2 3 3 1 5 5 4 3 3 6 5 3 8 8 5 3 1 6 1
9 13 12 13 12 9 10 10 8 9 8 3 3 0 3 3 7 4 3 2 4 2 3 3 3 2 2 3 4 4 3 3 2 3 6 7 6 4 4 3 9 5 4 4 5 3 3
8 13 13 13 15 12 11 9 11 10 10 3 1 2 2 3 7 3 9 11 7 4 3 2 3 4 4 4 1 2 2 3 4 3 1 5 7 5 8 7 5 5 4 5 2 3 3
Wind_Direction
345 340 342 340 330 326 334 336 333 331 325 324 319 319 312 310 289 304 298 299 299 298 296 296 304 309 272 183 241 288 315 180 193 167 172 155 150 157 173 177 114 163 240 218 247 271 233
339 342 335 341 331 338 337 336 337 334 330 328 327 325 323 320 314 309 309 299 291 289 287 294 300 321 268 227 244 260 247 176 178 153 143 137 175 183 175 188 170 187 196 247 266 252 245
335 340 338 344 330 340 335 339 336 332 329 327 331 330 321 322 320 315 311 306 292 289 290 291 295 300 225 226 108 358 194 175 162 139 147 169 162 170 168 138 180 181 131 233 226 209 240
340 337 341 339 332 337 336 337 333 334 327 329 332 329 327 324 322 323 314 308 297 292 289 286 289 280 252 218 287 311 177 147 172 144 136 168 173 186 165 134 48 126 74 162 271 172 240
338 339 343 337 332 334 335 334 334 332 329 329 329 336 332 328 325 322 316 311 299 285 282 288 280 214 213 135 236 200 236 164 141 135 157 143 135 162 102 121 67 19 160 185 308 219 235
340 339 344 335 338 336 333 335 330 330 330 330 327 327 325 322 323 319 317 315 292 284 286 240 241 270 201 196 174 151 180 165 137 125 128 171 85 121 90 128 199 174 168 229 222 214 108
341 339 346 336 344 338 335 335 331 334 332 329 321 321 318 320 323 332 342 356 16 58 245 200 146 247 240 176 120 156 161 117 130 111 158 147 158 185 188 147 127 138 123 147 273 276 326
342 343 342 341 346 338 341 340 334 333 336 335 327 316 319 319 328 332 74 25 323 211 296 248 314 267 279 193 149 146 145 148 157 123 134 82 195 164 100 147 128 89 72 289 287 301 267
345 344 348 345 345 342 342 342 336 337 333 325 322 311 309 313 327 47 327 246 282 225 256 61 357 287 247 102 99 145 161 165 121 126 103 129 171 129 156 159 147 142 166 228 235 324 63
343 345 343 340 345 342 347 340 339 337 333 330 323 313 311 315 303 63 287 296 229 336 88 39 257 232 194 130 60 96 183 114 60 125 124 114 215 166 138 152 126 157 206 154 78 38 262
344 345 345 346 347 344 349 340 340 335 322 318 310 302 295 284 139 180 227 101 47 35 90 144 219 309 94 80 136 193 272 64 118 111 107 210 133 151 134 159 149 182 113 96 87 86 12
347 347 348 349 349 351 350 344 338 333 327 321 329 322 312 262 153 176 116 125 31 42 110 157 151 156 99 97 36 98 47 50 75 67 35 62 51 91 140 63 144 140 82 53 56 68 8
345 349 352 350 353 349 350 346 344 346 358 17 17 43 69 107 104 109 118 79 48 76 234 127 140 128 108 129 104 87 67 75 124 119 101 356 353 13 103 79 31 79 68 351 352 12 224
343 350 356 354 354 350 353 352 352 355 14 33 44 51 39 49 99 114 94 331 64 323 271 114 118 102 97 105 115 105 75 110 64 87 115 136 306 183 129 144 167 116 137 160 215 238 289
345 350 356 356 357 354 358 354 354 355 2 16 27 25 40 1 50 34 25 32 299 314 288 124 93 83 68 52 117 102 183 156 134 157 124 117 349 29 68 119 134 203 106 205 106 69 43
343 354 354 356 359 357 1 356 357 355 353 353 45 19 8 316 349 13 55 344 274 212 111 60 91 69 123 131 103 120 186 172 134 152 88 191 85 67 68 84 27 136 158 74 3 101 290
341 352 358 354 0 359 3 359 356 357 346 360 59 35 249 312 15 46 33 4 6 8 13 43 129 107 107 127 116 101 177 285 182 158 156 125 97 156 104 211 174 133 174 60 111 110 150
340 352 357 354 1 1 2 359 358 358 350 30 21 32 303 354 63 90 27 321 311 315 336 332 89 78 119 116 107 109 185 219 178 136 155 200 123 161 196 249 184 154 169 144 119 251 206
343 347 356 355 360 1 4 359 359 356 0 34 38 290 347 42 40 360 304 259 235 288 244 170 115 137 164 130 116 155 195 222 160 147 169 183 12 60 20 24 10 200 188 135 100 109 202
344 347 349 358 354 2 4 1 357 357 351 84 88 12 328 33 315 327 2 352 345 308 279 77 90 114 106 106 64 178 156 22 170 170 177 101 116 151 187 203 140 201 185 176 147 150 180
339 345 344 358 352 360 3 2 359 357 354 87 37 55 60 338 353 347 350 351 353 7 354 34 59 85 114 104 90 114 116 91 61 158 116 112 142 110 266 254 202 213 207 186 193 213 206
335 338 344 349 356 355 2 3 2 1 355 71 94 60 315 265 289 324 330 5 18 342 20 4 68 35 77 127 189 185 135 133 178 69 108 64 121 60 284 290 224 249 233 222 226 236 252
336 327 338 344 358 352 357 5 5 8 13 65 333 309 175 284 345 5 304 319 353 338 19 55 103 97 58 25 347 126 173 154 173 143 127 116 133 78 282 343 324 283 228 204 185 211 212
326 324 342 345 352 346 352 359 4 12 29 325 35 288 324 293 51 270 334 328 14 356 133 13 46 102 189 137 129 47 48 75 111 95 138 127 106 97 253 348 292 251 233 180 195 223 208
324 323 331 345 352 343 342 354 357 5 21 34 330 39 349 284 298 297 319 289 320 356 53 97 39 176 333 54 70 90 34 48 54 151 132 122 116 109 112 272 286 287 171 144 179 277 205
318 321 327 331 344 335 334 344 345 353 8 66 29 341 350 309 242 289 303 292 204 238 350 34 316 304 83 85 85 168 187 178 194 107 76 109 106 154 166 267 261 254 187 96 106 312 225
308 318 314 324 319 321 327 325 334 333 355 89 290 19 178 272 284 142 224 287 312 147 159 287 201 90 42 110 128 181 229 71 170 175 163 158 187 219 228 253 283 249 230 154 111 238 245
310 307 313 318 318 306 323 332 321 325 325 111 274 155 112 284 286 261 274 297 335 293 163 205 71 311 70 145 158 203 188 192 193 182 169 176 182 185 183 221 264 159 104 191 219 284 254
303 321 324 315 315 314 300 316 314 311 310 184 270 238 147 189 255 285 271 263 248 254 326 243 200 167 192 110 199 130 163 149 185 239 276 202 187 184 197 211 245 203 248 247 197 240 278